Dubuque, IA

5:05 PM CDT on August 16, 2017 (GMT -0500)
Dubuque Regional

Weather History for KDBQ - September, 2013

Change the Weather History Date:

Sunday, September 8, 2013

  Actual Average Record
Temperature  
Mean Temperature 72 °F 65 °F  
Max Temperature 76 °F 75 °F 97 °F (1922)
Min Temperature 67 °F 55 °F 37 °F (1986)
Degree Days  
Heating Degree Days 0 3  
Month to date heating degree days 6 18  
Since 1 July heating degree days 38 45  
Cooling Degree Days 7 3  
Month to date cooling degree days 40 27  
Year to date cooling degree days 576 603  
Growing Degree Days 20 (Base 50)    
Moisture  
Dew Point 67 °F    
Average Humidity 88    
Maximum Humidity 97    
Minimum Humidity 79    
Precipitation  
Precipitation 0.00 in 0.12 in 2.82 in (1941)
Month to date precipitation T 0.95  
Year to date precipitation 30.69 26.93  
Snow  
Snow 0.00 in 0.00 in - ()
Month to date snowfall 0.0 0.0  
Since 1 July snowfall 0.0 0.0  
Since 1 September snowfall 0.0 0.0  
Snow Depth 0.00 in    
Sea Level Pressure  
Sea Level Pressure 29.97 in    
Wind  
Wind Speed 10 mph (East)    
Max Wind Speed 21 mph    
Max Gust Speed 25 mph    
Visibility 9 miles    
Events      
T = Trace of Precipitation, MM = Missing Value Source: NWS Daily Summary

Daily Weather History Graph

Daily Weather History Graph

Search for Another Location

Airport or City:

Trip Planner

Search our weather history database for the weather conditions in past years. The results will help you decide how hot, cold, wet, or windy it might be!

Date:

Astronomy

Sep. 08, 2013 Rise Set
Actual Time 6:35 AM CDT 7:24 PM CDT
Civil Twilight 6:07 AM CDT 7:52 PM CDT
Nautical Twilight 5:33 AM CDT 8:26 PM CDT
Astronomical Twilight 4:58 AM CDT 9:01 PM CDT
Moon 9:58 AM CDT (9/8) 8:54 PM CDT (9/8)
Length of Visible Light 13h 45m
Length of Day
12h 48m
Waxing Crescent, 11% of the Moon is Illuminated
Sep 8
Waxing Crescent
Sep 12
First Quarter
Sep 19
Full
Sep 26
Last Quarter
Oct 4
New

Hourly Weather History & Observations

Time (CDT) Temp. Dew Point Humidity Pressure Visibility Wind Dir Wind Speed Gust Speed Precip Events Conditions
12:53 AM 75.0 °F 69.1 °F 82% 29.92 in 10.0 mi ENE 8.1 mph - N/A   Clear
1:53 AM 71.1 °F 70.0 °F 96% 29.92 in 6.0 mi NE 11.5 mph - N/A   Scattered Clouds
2:53 AM 73.0 °F 70.0 °F 90% 29.92 in 7.0 mi ENE 17.3 mph 21.9 mph N/A   Clear
3:40 AM 71.6 °F 69.8 °F 94% 29.96 in 7.0 mi ENE 16.1 mph 23.0 mph N/A   Mostly Cloudy
3:53 AM 71.1 °F 69.1 °F 93% 29.94 in 7.0 mi ENE 15.0 mph 25.3 mph N/A   Overcast
4:24 AM 71.6 °F 69.8 °F 94% 29.96 in 7.0 mi ENE 17.3 mph 25.3 mph N/A   Overcast
4:53 AM 70.0 °F 68.0 °F 93% 29.94 in 8.0 mi ENE 13.8 mph - N/A   Overcast
5:53 AM 68.0 °F 66.9 °F 96% 29.97 in 7.0 mi ENE 17.3 mph 24.2 mph N/A   Overcast
6:53 AM 66.9 °F 64.9 °F 93% 30.00 in 9.0 mi ENE 10.4 mph - N/A   Overcast
7:53 AM 66.9 °F 64.9 °F 93% 30.00 in 9.0 mi ENE 11.5 mph - N/A   Overcast
8:53 AM 66.9 °F 64.0 °F 90% 30.01 in 10.0 mi East 12.7 mph - N/A   Overcast
9:53 AM 68.0 °F 64.9 °F 90% 30.02 in 10.0 mi East 9.2 mph - N/A   Overcast
10:53 AM 68.0 °F 64.9 °F 90% 30.04 in 10.0 mi East 5.8 mph - N/A   Overcast
11:31 AM 69.8 °F 66.2 °F 88% 30.05 in 10.0 mi East 8.1 mph - N/A   Overcast
11:53 AM 70.0 °F 66.0 °F 87% 30.03 in 10.0 mi East 11.5 mph - N/A   Overcast
12:53 PM 71.1 °F 66.0 °F 84% 30.02 in 10.0 mi ENE 8.1 mph - N/A   Overcast
1:53 PM 72.0 °F 66.9 °F 84% 30.00 in 10.0 mi East 12.7 mph - N/A   Overcast
2:53 PM 73.9 °F 68.0 °F 82% 29.97 in 10.0 mi East 9.2 mph - N/A   Overcast
3:53 PM 75.0 °F 68.0 °F 79% 29.96 in 10.0 mi East 9.2 mph - N/A   Overcast
4:00 PM 75.2 °F 68.0 °F 78% 29.97 in 10.0 mi ESE 10.4 mph - N/A   Overcast
4:53 PM 75.0 °F 68.0 °F 79% 29.95 in 10.0 mi East 8.1 mph - N/A   Overcast
5:53 PM 75.0 °F 68.0 °F 79% 29.94 in 9.0 mi East 9.2 mph - N/A   Overcast
6:19 PM 73.4 °F 68.0 °F 83% 29.93 in 9.0 mi ESE 12.7 mph 18.4 mph N/A   Mostly Cloudy
6:53 PM 73.9 °F 68.0 °F 82% 29.92 in 9.0 mi East 10.4 mph - N/A   Clear
7:53 PM 71.1 °F 68.0 °F 90% 29.94 in 9.0 mi East 6.9 mph - N/A   Partly Cloudy
8:53 PM 71.1 °F 66.9 °F 87% 29.94 in 9.0 mi East 8.1 mph - N/A   Overcast
9:53 PM 70.0 °F 66.9 °F 90% 29.94 in 8.0 mi East 8.1 mph - N/A   Mostly Cloudy
10:53 PM 69.1 °F 66.9 °F 93% 29.94 in 7.0 mi East 5.8 mph - N/A   Clear
11:53 PM 68.0 °F 66.0 °F 93% 29.94 in 6.0 mi East 3.5 mph - N/A   Clear